Regional Weather Roundup
Issued by NWS Sterling, VA

Home | Current Version | Previous Version | Text Only | Print | Product List | Glossary Off
Versions: 1 2 3 4 5 6 7 8 9 10 11 12 13 14 15 16 17 18 19 20 21 22 23 24 25 26 27 28

000
ASUS41 KLWX 040110
RWRLWX

REGIONAL WEATHER ROUNDUP
NATIONAL WEATHER SERVICE BALTIMORE MD/WASHINGTON DC
800 PM EST SAT DEC 03 2016

Note: "FAIR" indicates few or no clouds below 12,000 feet
with no significant weather and/or obstructions to visibility.
 TC=TEMPERATURE CELSIUS

 * =Non NWS site. Station does not report precipitation (e.g. rain,
    snow, etc.), thunder, or fog.

DCZ001-MDZ009-015-VAZ040>042-051-053>054-040200-
WASHINGTON METRO

CITY           SKY/WX    TMP DP  RH WIND       PRES   REMARKS
WASHINGTON NAT CLOUDY    44  29  55 NW13G22   30.26S
DULLES         CLOUDY    41  27  57 NW15G23   30.26S
ANDREWS AFB    PTCLDY    41  28  58 NW16      30.23S
FT BELVOIR     CLOUDY    42  28  57 NW7       30.26R
QUANTICO       PTCLDY    43  27  53 N13G23    30.28R
COLLEGE PARK*  CLOUDY    41  28  60 W8        30.25S
LEESBURG*      CLOUDY    41  32  70 NW15G21   30.27S
MANASSAS*      CLOUDY    41  28  60 NW8       30.28R
GAITHERSBURG*  CLOUDY    39  27  60 NW14      30.27S

$$

MDZ006>007-011-014-040200-
BALTIMORE METRO

CITY           SKY/WX    TMP DP  RH WIND       PRES   REMARKS
BWI AIRPORT    MOCLDY    40  30  67 W8        30.23R
MD SCIENCE CTR   N/A     44  28  53 MISG      30.22R
MARTIN STATE   MOCLDY    45  34  65 W9        30.23R
ANNAPOLIS      PTCLDY    44  30  57 W5        30.24R
FORT MEADE*    PTCLDY    37  30  75 W5        30.26S

$$

MDZ012-015-019>023-040200-
MARYLAND EASTERN SHORE

CITY           SKY/WX    TMP DP  RH WIND       PRES   REMARKS
OCEAN CITY     PTCLDY    42  30  62 NW6       30.21R
SALISBURY      CLOUDY    43  31  62 W6        30.21S
BAY BRIDGE AP* PTCLDY    43  30  61 W9G20     30.23S
CAMBRIDGE*     CLOUDY    43  32  65 NW9       30.22S
EASTON*        PTCLDY    45  30  57 NW10      30.26R

$$

MDZ017>025-040200-
SOUTHERN MARYLAND

CITY           SKY/WX    TMP DP  RH WIND       PRES   REMARKS
PATUXENT RIVER CLOUDY    44  29  55 NW13      30.24S
ST INIGOES     PTCLDY    45  29  53 NW9       30.24R
LEONARDTOWN*   PTCLDY    41  28  60 W5        30.26S

$$

MDZ003>005-040200-
NORTH CENTRAL MARYLAND

CITY           SKY/WX    TMP DP  RH WIND       PRES   REMARKS
FREDERICK*     NOT AVBL
HAGERSTOWN APT CLOUDY    41  28  60 W15       30.23S
WESTMINSTER*   CLOUDY    39  28  65 W12       30.20S

$$

MDZ501>502-040200-
WESTERN MARYLAND

CITY           SKY/WX    TMP DP  RH WIND       PRES   REMARKS
OAKLAND*       CLOUDY    27  23  86 NW6       30.20F
CUMBERLAND*    NOT AVBL

$$

VAZ025>031-040200-
SHENANDOAH VALLEY

CITY           SKY/WX    TMP DP  RH WIND       PRES   REMARKS
WINCHESTER*    CLOUDY    37  27  65 NW13      30.27S
FRONT ROYAL*   CLOUDY    36  28  75 CALM      30.27S
LURAY*         FAIR      36  32  87 NE3       30.27R
NEW MARKET*    FAIR      35  26  69 N5        30.26R
STAUNTON*      PTCLDY    36  27  70 N7        30.26S
WAYNESBORO*    FAIR      37  26  65 N5        30.24R

$$

WVZ021-048>050-054>055-040200-
EASTERN WEST VIRGINIA PANHANDLE

CITY           SKY/WX    TMP DP  RH WIND       PRES   REMARKS
MARTINSBURG    CLOUDY    40  27  59 W14G23    30.26S
PETERSBURG*    CLOUDY    33  28  84 CALM      30.29S

$$

VAZ036>039-050-040200-
CENTRAL FOOTHILLS

CITY           SKY/WX    TMP DP  RH WIND       PRES   REMARKS
CHARLOTTESVILL CLOUDY    42  28  57 VRB3      30.24R
CULPEPER*      CLOUDY    40  29  65 N7        30.27S
ORANGE*          N/A     37  30  75 CALM      30.27S
GORDONSVILLE*  FAIR      39  29  68 NE6       30.25R
WARRENTON*     FAIR      40  24  53 N13       30.26S

$$

VAZ055>057-040200-
NORTH AND CENTRAL PIEDMONT

CITY           SKY/WX    TMP DP  RH WIND       PRES   REMARKS
FREDERICKSBRG* PTCLDY    42  30  63 N6        30.27R
STAFFORD*      PTCLDY    39  28  63 NW12      30.31R

$$

NCZ024-NYZ072-PAZ021-071-VAZ022-071-040200-
OTHER REGIONAL OBSERVATIONS

CITY           SKY/WX    TMP DP  RH WIND       PRES   REMARKS
NEW YORK CITY  MOCLDY    43  27  53 NW9       30.13S
PHILADELPHIA   CLOUDY    47  30  51 NW12      30.18R
PITTSBURGH     CLOUDY    37  28  70 SW3       30.26F
ROANOKE        MOCLDY    39  27  62 NW7       30.27R
RICHMOND       CLOUDY    42  33  70 NE9       30.25
RALEIGH        CLOUDY    46  30  53 CALM      30.25S

$$

ANZ530>537-040200-
MARINE OBSERVATIONS

STATION/POSITION TIME  TEMP    WIND        PRES
                       AIR SEA DIR/SP/G
                 (UTC) (F)     (DEG/KT/KT) (MB)
THOMAS PT LIGHT  0000   44 49  290/ 14/ 15   N/A
BALT KEY BRIDGE  0048   43     250/ 11/ 12 1023.4R
COVE POINT       0048   44     330/ 15/ 20 1024.4S
LEWISETTA        0048   45 50  360/ 11/ 14 1024.1R
SOLOMONS ISLAND  0048   45 51  320/  9/ 17   N/A
PINEY POINT      0048          350/ 12/ 14   N/A

$$





USA.gov is the U.S. government's official web portal to all federal, state and local government web resources and services.